Regional Weather Roundup
Issued by NWS

Home | Current Version | Previous Version | Text Only | Print | Product List | Glossary Off
Versions: 1 2 3 4 5 6 7 8 9 10 11 12 13 14 15 16 17 18 19 20 21 22 23 24 25 26 27 28 29 30 31 32 33 34 35 36 37 38 39 40 41 42 43 44 45 46 47 48 49 50

000
ASUS43 KMPX 041301
RWRMN
WEATHER ROUNDUP FOR MINNESOTA
NATIONAL WEATHER SERVICE TWIN CITIES/CHANHASSEN MN
800 AM CDT TUE AUG 04 2015


NOTE: "FAIR" INDICATES FEW OR NO CLOUDS BELOW 12,000 FEET WITH NO
SIGNIFICANT WEATHER AND/OR OBSTRUCTIONS TO VISIBILITY. N/A MEANS
CURRENT SKY AND/OR WEATHER CONDITIONS ARE NOT AVAILABLE.

MNZ060>063-068>070-041400-
   Twin Cities Metro

CITY           SKY/WX    TMP DP  RH WIND       PRES   REMARKS
TWIN CITIES    MOSUNNY   65  57  75 NW5       30.01R
ST PAUL        SUNNY     65  57  75 NW3       30.01R
CRYSTAL        SUNNY     66  54  65 SW5       30.00R
BLAINE         SUNNY     64  55  72 SW6         N/A
LAKEVILLE      SUNNY     63  57  82 CALM      30.01S
EDEN PRAIRIE   SUNNY     64  56  75 CALM      30.01R
SOUTH ST PAUL  SUNNY     64  55  74 CALM      30.00S
LAKE ELMO      FAIR      63  59  88 W3        30.02R
$$
MNZ001>005-007-008-013>017-022>024-027-028-041400-
   Northwest Minnesota

CITY           SKY/WX    TMP DP  RH WIND       PRES   REMARKS
BEMIDJI        SUNNY     55  51  84 W3        30.00R
HALLOCK        SUNNY     57  54  88 N3        30.02R
ROSEAU         SUNNY     55  50  82 N5        30.00R
WARROAD        SUNNY     55  52  88 N7        30.00R
THIEF RVR FALL SUNNY     59  52  77 N6        30.01R
CROOKSTON      SUNNY     57  52  82 NE3       30.01R
FOSSTON        SUNNY     57  54  88 CALM      30.01R
DETROIT LAKES  SUNNY     59  52  77 CALM      30.02R
MOORHEAD       SUNNY     55  52  88 CALM      30.03R
PARK RAPIDS    SUNNY     60  51  72 N6        30.00R
MAHNOMEN       FAIR      54  51  91 CALM      30.01R
$$
MNZ006-009>011-018-025>026-041400-
   North Central Minnesota

CITY           SKY/WX    TMP DP  RH WIND       PRES   REMARKS
BAUDETTE       MOSUNNY   60  53  77 N9        29.97R
FLAG ISLAND    SUNNY     55  52  88 N13       29.99R
INTL FALLS     MOSUNNY   59  55  87 N10       29.96R
WASKISH        SUNNY     59  54  82 N7        29.98R
BIG FORK       SUNNY     54  54 100 CALM      29.96S
LONGVILLE      SUNNY     54  54 100 CALM      29.98R
GRAND RAPIDS   SUNNY     57  54  88 W5        29.97R
CRANE LAKE     CLOUDY    55  54  94 VRB2      29.96R
ORR            PTSUNNY   55  52  88 CALM      29.93S
COOK           PTSUNNY   52  52 100 CALM      29.95S
WALKER         FAIR      53  50  90 CALM      29.99R
$$
MNZ012-019>021-037-041400-
   Northeast Minnesota

CITY           SKY/WX    TMP DP  RH WIND       PRES   REMARKS
DULUTH         SUNNY     59  52  77 NW3       29.95R
ELY            CLOUDY    55  54  94 CALM      29.94R
HIBBING        SUNNY     58  52  80 NW3       29.95S
EVELETH        SUNNY     57  52  82 NW6       29.95S
DULUTH HARBOR  SUNNY     61  54  77 CALM      29.94S
TWO HARBORS    SUNNY     63  55  77 NW3       29.91S
SILVER BAY     SUNNY     63  54  72 NW3       29.91S
GRAND MARAIS     N/A     54  51  90 S5        29.91R
G MARAIS ARPRT SUNNY     55  48  76 NW12G17   29.93R
$$
MNZ029>031-032-039>041-046>048-054>057-064-041400-
   West Central Minnesota

CITY           SKY/WX    TMP DP  RH WIND       PRES   REMARKS
FERGUS FALLS   SUNNY     57  54  88 SW3       30.03R
WHEATON        SUNNY     55  54  94 CALM      30.04R
MORRIS         SUNNY     61  55  82 CALM      30.02R
ALEXANDRIA     SUNNY     62  53  72 W10       30.05R
ELBOW LAKE     FAIR      57  54  90 CALM      30.03R
WADENA         SUNNY     55  54  94 CALM      30.01R
GLENWOOD       SUNNY     61  57  88 SW6       30.04R
APPLETON       MOSUNNY   61  55  82 CALM      30.03R
BENSON         MOSUNNY   59  55  88 CALM      30.03R
ORTONVILLE     MOSUNNY   63  48  59 CALM      30.03S
MADISON        PTSUNNY   59  55  88 SW5       30.04R
WILLMAR        FAIR      57  54  88 CALM      30.04R
$$
MNZ033>034-036-042>043-049>051-058-059-041400-
   Central Minnesota

CITY           SKY/WX    TMP DP  RH WIND       PRES   REMARKS
ST CLOUD       SUNNY     58  55  90 SW6       30.02R
SAUK CENTRE    FAIR      57  52  85 CALM      30.04R
PAYNESVILLE    SUNNY     56  55  96 SW6       30.04R
AITKIN         SUNNY     59  52  77 CALM      29.97R
PINE RIVER     SUNNY     57  52  82 CALM      30.02R
BRAINERD       SUNNY     57  54  89 S3        30.00R
STAPLES        SUNNY     57  54  88 SW3       30.00R
LONG PRAIRIE   FAIR      55  54  94 CALM      30.04R
LITCHFIELD     SUNNY     63  55  77 W3        30.03R
BUFFALO        SUNNY     62  54  75 CALM      30.03S
MAPLE LAKE     SUNNY     61  55  82 CALM      30.03R
$$
MNZ037-044-045-052-053-041400-
   East Central Minnesota

CITY           SKY/WX    TMP DP  RH WIND       PRES   REMARKS
PRINCETON      SUNNY     57  55  94 SW5       30.02R
MORA           SUNNY     55  52  88 CALM      30.01R
CAMBRIDGE      SUNNY     63  52  67 W3        29.99R
RUSH CITY      SUNNY     56  55  95 CALM      30.00R
MOOSE LAKE     SUNNY     55  52  88 CALM      29.96R
HINCKLEY       FAIR      59  54  82 NW3       29.98R
CLOQUET        SUNNY     57  52  82 NW3       29.96R
MCGREGOR       SUNNY     55  52  88 SW3       29.99R
$$
MNZ071>073-080-081-089-090-097-098-041400-
   Southwest Minnesota

CITY           SKY/WX    TMP DP  RH WIND       PRES   REMARKS
MONTEVIDEO     PTSUNNY   63  54  72 W3        30.05R
GRANITE FALLS  PTSUNNY   57  55  94 CALM      30.06R
CANBY          PTSUNNY   62  54  74 SW3       30.05S
MARSHALL       PTSUNNY   63  54  72 SW6       30.05R
REDWOOD FALLS  PTSUNNY   61  54  77 W5        30.04R
OLIVIA         PTSUNNY   55  52  88 W3        30.03R
PIPESTONE      CLOUDY    63  54  72 CALM      30.05S
WINDOM         PTSUNNY   59  54  82 CALM      30.05S
WORTHINGTON    CLOUDY    59  54  82 CALM      30.06R
JACKSON        PTSUNNY   59  55  88 CALM      30.06R
TRACY          PTSUNNY   64  57  77 SW5       30.05R
SLAYTON        CLOUDY    60  56  87 CALM      30.06S
$$
MNZ065>067-074>077-082>085-091>093-041400-
   South Central Minnesota

CITY           SKY/WX    TMP DP  RH WIND       PRES   REMARKS
MANKATO        PTSUNNY   59  54  82 W5        30.04R
NEW ULM        PTSUNNY   57  55  94 W3        30.04R
ST JAMES         N/A     61  55  82 CALM      30.05R
FAIRMONT       PTSUNNY   61  52  72 CALM      30.04R
GLENCOE        MOSUNNY   59  56  88 CALM      30.02R
FARIBAULT      MOSUNNY   61  55  82 SW7       30.03R
OWATONNA       MOSUNNY   59  55  88 CALM      30.03R
WASECA         MOSUNNY   55  54  94 SW3       30.05R
ALBERT LEA     PTSUNNY   63  57  82 CALM      30.04R
$$
MNZ078>079-086>088-094>096-041400-
   Southeast Minnesota

CITY           SKY/WX    TMP DP  RH WIND       PRES   REMARKS
ROCHESTER      MOSUNNY   61  57  87 SW6       30.04R
RED WING       SUNNY     61  57  88 CALM      29.99S
STANTON        SUNNY     58  55  89 CALM      30.00S
DODGE CENTER   MOSUNNY   57  55  94 SW3       30.03R
WINONA         SUNNY     61  55  82 CALM      30.00R
AUSTIN         PTSUNNY   61  55  82 CALM      30.03R
PRESTON        MOSUNNY   61  55  81 CALM      30.03R
$$
ABBREVIATIONS USED IN REMARKS
   TC - TEMPERATURES IN CELSIUS
  WCI - WIND CHILL INDEX
   HX - HEAT INDEX
  VSB - VISIBILITY
$$


USA.gov is the U.S. government's official web portal to all federal, state and local government web resources and services.